Skip Page Navigation
NASA JPL Caltech
NASA Logo - Jet Propulsion Laboratory + View the NASA Portal
+ Center for Near-Earth Object Studies
JPL Home Earth Solar System Stars & Galaxies Technology
JPL Solar System Dynamics
BODIES ORBITS EPHEMERIDES TOOLS PHYSICAL DATA DISCOVERY FAQ SITE MAP
JPL Small-Body Database Browser
Search: [ help ]  
452734 (2006 BU25)
Classification: Main-belt Asteroid          SPK-ID: 2452734
Ephemeris | Orbit Diagram | Orbital Elements | Mission Design | Physical Parameters | Discovery Circumstances | Close-Approach Data ]

[ show orbit diagram ]
Orbital Elements at Epoch 2459000.5 (2020-May-31.0) TDB
Reference: JPL 10 (heliocentric ecliptic J2000)
 Element Value Uncertainty (1-sigma)   Units 
e .1789656907865128 9.707e-08  
a 3.058889664597311 3.3486e-08 au
q 2.511453362732929 2.9702e-07 au
i .3358814859211421 7.9989e-06 deg
node 139.5065135647991 0.0014467 deg
peri 51.96326644285303 0.001447 deg
M 204.3544183045523 2.5994e-05 deg
tp 2459845.347729241684
(2022-Sep-22.84772924)
0.00014778 TDB
period 1954.088122604908
5.35
3.2088e-05
8.785e-08
d
yr
n .1842291531459185 3.0252e-09 deg/d
Q 3.606325966461692 3.9479e-08 au
  Orbit Determination Parameters
   # obs. used (total)      135  
   data-arc span      7175 days (19.64 yr)  
   first obs. used      2001-03-21  
   last obs. used      2020-11-11  
   planetary ephem.      DE431  
   SB-pert. ephem.      SB431-N16  
   condition code      0  
   norm. resid. RMS      .50903  
   source      ORB  
   producer      Otto Matic  
   solution date      2020-Dec-18 07:07:51  

Additional Information
 Earth MOID = 1.5115 au 
 Jupiter MOID = 1.35061 au 
 T_jup = 3.210 
[ show covariance matrix ]

Ephemeris | Orbit Diagram | Orbital Elements | Mission Design | Physical Parameters | Discovery Circumstances | Close-Approach Data ]

Physical Parameter Table
Parameter Symbol Value Units Sigma Reference Notes
absolute magnitude H 16.8   n/a MPO437750  

452734 (2006 BU25)          Discovered 2006-Jan-23 by Healy, D. at Junk Bond
Reference: Last Updated: 2016-01-04

[ show close-approach data ]
Alternate Designations
 2006 BU25 = 2001 FL181 
Ephemeris | Orbit Diagram | Orbital Elements | Mission Design | Physical Parameters | Discovery Circumstances | Close-Approach Data ]
ABOUT SSD CREDITS/AWARDS PRIVACY/COPYRIGHT GLOSSARY LINKS
FirstGov 2021-Jan-21 09:33 UT
(server date/time)  
NASA Home Page
Site Manager:   Ryan S. Park
Webmaster  Alan B. Chamberlin